Location: Dompnac
(44.5644°N, 4.1026°E)
Time: 19:29:31
(UTC+00:00)

Cosmos 2142 Rocket - Pass Details

Date: 19 September 2020
Orbit: 952 x 1005 km, 82.9° (Epoch: 27 October)

Event Time Altitude Azimuth Distance (km) Brightness Sun altitude
Exits shadow 20:47:05 82° 291° (WNW) 998 4.4 -30.8°
Drops below altitude 10° 20:53:17 10° 7° (N) 2,729 7.2 -31.7°
Sets 20:55:48 0° 8° (N) 3,673 7.9 -32.0°
